| time (UTC) | temp C | wind direction | speed KPH | gust KPH | rain 1hr cm | rain 24hr cm | rain mn cm | humidity % | barometer mb |
| 20260506145438 | 13 | 135 | 0.0 | 0.0 | 0.00 | 0.00 | 0.00 | 90 | 1019.6 |
| 20260506144923 | 13 | 203 | 0.0 | 0.0 | 0.00 | 0.00 | 0.00 | 91 | 1019.6 |
| 20260506144403 | 12 | 248 | 0.0 | 0.0 | 0.00 | 0.00 | 0.00 | 93 | 1019.6 |
| 20260506143843 | 12 | 248 | 0.0 | 0.0 | 0.00 | 0.00 | 0.00 | 93 | 1019.6 |
| 20260506142808 | 12 | 248 | 0.0 | 0.0 | 0.00 | 0.00 | 0.00 | 94 | 1019.4 |
| 20260506142248 | 12 | 248 | 0.0 | 0.0 | 0.00 | 0.00 | 0.00 | 95 | 1019.4 |
| 20260506141728 | 12 | 225 | 0.0 | 0.0 | 0.00 | 0.00 | 0.00 | 95 | 1019.3 |
| 20260506141208 | 11 | 248 | 0.0 | 0.0 | 0.00 | 0.00 | 0.00 | 95 | 1019.3 |
| 20260506140653 | 11 | 270 | 0.0 | 0.0 | 0.00 | 0.00 | 0.00 | 95 | 1019.3 |
| 20260506140133 | 11 | 248 | 0.0 | 0.0 | 0.00 | 0.00 | 0.00 | 95 | 1019.3 |
| 20260506135613 | 11 | 45 | 0.0 | 0.0 | 0.00 | 0.00 | 0.00 | 95 | 1019.3 |
| 20260506135053 | 11 | 45 | 0.0 | 0.0 | 0.00 | 0.00 | 0.00 | 95 | 1019.2 |
| 20260506134533 | 11 | 203 | 0.0 | 0.0 | 0.00 | 0.00 | 0.00 | 95 | 1019.2 |
| 20260506133519 | 11 | 45 | 0.0 | 0.0 | 0.00 | 0.00 | 0.00 | 95 | 1019.2 |
| 20260506132958 | 11 | 315 | 0.0 | 0.0 | 0.00 | 0.00 | 0.00 | 95 | 1019.2 |
| 20260506131938 | 11 | 180 | 0.0 | 0.0 | 0.00 | 0.00 | 0.00 | 95 | 1019.1 |
| 20260506131418 | 11 | 225 | 0.0 | 0.0 | 0.00 | 0.00 | 0.00 | 95 | 1019.1 |
| 20260506130903 | 11 | 135 | 0.0 | 0.0 | 0.00 | 0.00 | 0.00 | 95 | 1019.1 |
| 20260506125823 | 11 | 45 | 0.0 | 0.0 | 0.00 | 0.00 | 0.00 | 95 | 1018.9 |
| 20260506125305 | 11 | 90 | 0.0 | 0.0 | 0.00 | 0.00 | 0.00 | 95 | 1018.8 |
| 20260506124748 | 11 | 225 | 0.0 | 0.0 | 0.00 | 0.00 | 0.00 | 95 | 1018.8 |
| 20260506124228 | 11 | 225 | 0.0 | 0.0 | 0.00 | 0.00 | 0.00 | 95 | 1018.8 |
| 20260506123708 | 11 | 248 | 0.0 | 0.0 | 0.00 | 0.00 | 0.00 | 95 | 1018.8 |
| 20260506122633 | 11 | 180 | 0.0 | 0.0 | 0.00 | 0.00 | 0.00 | 95 | 1018.7 |
| 20260506122113 | 11 | 248 | 0.0 | 0.0 | 0.00 | 0.00 | 0.00 | 95 | 1018.7 |
| 20260506121553 | 11 | 248 | 0.0 | 0.0 | 0.00 | 0.00 | 0.00 | 95 | 1018.7 |
| 20260506121033 | 11 | 225 | 0.0 | 0.0 | 0.00 | 0.00 | 0.00 | 95 | 1018.7 |
| 20260506115438 | 11 | 45 | 0.0 | 0.0 | 0.00 | 0.00 | 0.00 | 95 | 1018.6 |
| 20260506113843 | 11 | 180 | 0.0 | 0.0 | 0.00 | 0.00 | 0.00 | 95 | 1018.6 |
| 20260506112803 | 11 | 270 | 0.0 | 0.0 | 0.00 | 0.00 | 0.00 | 95 | 1018.5 |
| 20260506112248 | 11 | 203 | 0.0 | 0.0 | 0.00 | 0.00 | 0.00 | 95 | 1018.5 |
| 20260506111729 | 11 | 248 | 0.0 | 0.0 | 0.00 | 0.00 | 0.00 | 95 | 1018.4 |
| 20260506111208 | 11 | 248 | 0.0 | 0.0 | 0.00 | 0.00 | 0.00 | 95 | 1018.4 |
| 20260506110648 | 11 | 225 | 0.0 | 0.0 | 0.00 | 0.00 | 0.00 | 95 | 1018.3 |
| 20260506105053 | 11 | 203 | 0.0 | 0.0 | 0.00 | 0.00 | 0.00 | 95 | 1018.3 |
| 20260506104533 | 11 | 225 | 0.0 | 0.0 | 0.00 | 0.00 | 0.00 | 95 | 1018.3 |
| 20260506104018 | 11 | 248 | 0.0 | 0.0 | 0.00 | 0.00 | 0.00 | 95 | 1018.3 |
| 20260506103459 | 11 | 225 | 0.0 | 0.0 | 0.00 | 0.00 | 0.00 | 95 | 1018.3 |
| 20260506102938 | 11 | 225 | 0.0 | 0.0 | 0.00 | 0.00 | 0.00 | 95 | 1018.1 |
| 20260506102418 | 11 | 225 | 0.0 | 0.0 | 0.00 | 0.00 | 0.00 | 95 | 1018.1 |
| 20260506101903 | 11 | 248 | 0.0 | 0.0 | 0.00 | 0.00 | 0.00 | 95 | 1018.0 |
| 20260506101343 | 11 | 248 | 0.0 | 0.0 | 0.00 | 0.00 | 0.00 | 95 | 1018.0 |
| 20260506100823 | 11 | 248 | 0.0 | 0.0 | 0.00 | 0.00 | 0.00 | 95 | 1018.0 |
| 20260506100303 | 11 | 225 | 0.0 | 0.0 | 0.00 | 0.00 | 0.00 | 95 | 1017.9 |
| 20260506095748 | 11 | 225 | 0.0 | 0.0 | 0.00 | 0.00 | 0.00 | 95 | 1017.9 |
| 20260506094708 | 11 | 225 | 0.0 | 0.0 | 0.00 | 0.00 | 0.00 | 95 | 1017.9 |
| 20260506094148 | 11 | 225 | 0.0 | 0.0 | 0.00 | 0.00 | 0.00 | 95 | 1017.9 |
| 20260506093633 | 11 | 293 | 0.0 | 0.0 | 0.00 | 0.00 | 0.00 | 95 | 1017.9 |
| 20260506092554 | 11 | 225 | 0.0 | 0.0 | 0.00 | 0.00 | 0.00 | 95 | 1018.0 |
| 20260506092033 | 11 | 203 | 0.0 | 0.0 | 0.00 | 0.00 | 0.00 | 95 | 1018.0 |
| 20260506091518 | 11 | 248 | 0.0 | 0.0 | 0.00 | 0.00 | 0.00 | 95 | 1018.0 |
| 20260506090958 | 11 | 248 | 0.0 | 0.0 | 0.00 | 0.00 | 0.00 | 95 | 1018.0 |
| 20260506090438 | 11 | 225 | 0.0 | 0.0 | 0.00 | 0.00 | 0.00 | 95 | 1017.9 |
| 20260506085918 | 11 | 248 | 0.0 | 0.0 | 0.00 | 0.00 | 0.00 | 95 | 1017.9 |
| 20260506085403 | 11 | 203 | 0.0 | 0.0 | 0.00 | 0.00 | 0.00 | 95 | 1018.0 |
| 20260506084843 | 11 | 203 | 0.0 | 0.0 | 0.00 | 0.00 | 0.00 | 95 | 1018.0 |
| 20260506084324 | 11 | 113 | 0.0 | 0.0 | 0.00 | 0.00 | 0.00 | 95 | 1018.1 |
| 20260506083803 | 11 | 68 | 0.0 | 0.0 | 0.00 | 0.00 | 0.00 | 95 | 1018.1 |
| 20260506083248 | 11 | 203 | 0.0 | 0.0 | 0.00 | 0.00 | 0.00 | 95 | 1018.1 |
| 20260506082708 | 10 | 68 | 0.0 | 0.0 | 0.00 | 0.00 | 0.00 | 95 | 1017.9 |
| 20260506082148 | 10 | 113 | 0.0 | 0.0 | 0.00 | 0.00 | 0.00 | 95 | 1017.9 |
| 20260506081633 | 10 | 225 | 0.0 | 0.0 | 0.00 | 0.00 | 0.00 | 95 | 1017.9 |
| 20260506080553 | 10 | 248 | 0.0 | 0.0 | 0.00 | 0.00 | 0.00 | 95 | 1017.8 |
| 20260506072904 | 10 | 270 | 3.2 | 3.2 | 0.00 | 0.00 | 0.00 | 95 | 1017.6 |
| 20260506072344 | 10 | 225 | 0.0 | 0.0 | 0.00 | 0.00 | 0.00 | 95 | 1017.6 |
| 20260506071843 | 10 | 225 | 1.6 | 1.6 | 0.00 | 0.00 | 0.00 | 95 | 1017.5 |
| 20260506071323 | 10 | 225 | 0.0 | 0.0 | 0.00 | 0.00 | 0.00 | 95 | 1017.5 |
| 20260506070804 | 10 | 270 | 0.0 | 0.0 | 0.00 | 0.00 | 0.00 | 95 | 1017.5 |
| 20260506070248 | 10 | 203 | 0.0 | 0.0 | 0.00 | 0.00 | 0.00 | 95 | 1017.4 |
| 20260506061959 | 10 | 248 | 6.4 | 6.4 | 0.00 | 0.00 | 0.08 | 95 | 1017.2 |
| 20260506061439 | 10 | 248 | 4.8 | 4.8 | 0.00 | 0.00 | 0.08 | 95 | 1017.1 |
| 20260506060404 | 10 | 225 | 0.0 | 0.0 | 0.00 | 0.00 | 0.08 | 95 | 1017.1 |
| 20260506051033 | 10 | 225 | 4.8 | 4.8 | 0.00 | 0.00 | 0.08 | 94 | 1016.9 |
| 20260506050514 | 10 | 225 | 4.8 | 4.8 | 0.00 | 0.00 | 0.08 | 94 | 1016.7 |
| 20260506044919 | 10 | 248 | 1.6 | 1.6 | 0.00 | 0.00 | 0.08 | 94 | 1016.5 |
| 20260506043844 | 10 | 248 | 3.2 | 3.2 | 0.00 | 0.00 | 0.08 | 93 | 1016.4 |
| 20260506043324 | 10 | 203 | 1.6 | 1.6 | 0.00 | 0.00 | 0.08 | 93 | 1016.4 |
| 20260506042803 | 10 | 203 | 0.0 | 0.0 | 0.00 | 0.00 | 0.08 | 92 | 1016.2 |
| 20260506042243 | 10 | 225 | 0.0 | 0.0 | 0.00 | 0.00 | 0.08 | 92 | 1016.2 |
| 20260506041729 | 10 | 203 | 0.0 | 0.0 | 0.00 | 0.00 | 0.08 | 92 | 1016.0 |
| 20260506041209 | 10 | 248 | 0.0 | 0.0 | 0.00 | 0.00 | 0.08 | 91 | 1016.0 |
| 20260506040648 | 11 | 225 | 0.0 | 0.0 | 0.00 | 0.00 | 0.08 | 91 | 1016.0 |
| 20260506040129 | 11 | 225 | 4.8 | 4.8 | 0.00 | 0.00 | 0.08 | 90 | 1016.0 |
| 20260506035613 | 11 | 180 | 3.2 | 3.2 | 0.00 | 0.00 | 0.08 | 90 | 1016.0 |
| 20260506035053 | 11 | 225 | 0.0 | 0.0 | 0.00 | 0.00 | 0.08 | 90 | 1015.8 |
| 20260506034533 | 11 | 225 | 0.0 | 0.0 | 0.00 | 0.00 | 0.08 | 89 | 1015.8 |
| 20260506033513 | 11 | 248 | 0.0 | 0.0 | 0.00 | 0.00 | 0.08 | 87 | 1015.6 |
| 20260506032439 | 11 | 203 | 0.0 | 0.0 | 0.00 | 0.00 | 0.08 | 86 | 1015.3 |
| 20260506031919 | 12 | 158 | 0.0 | 0.0 | 0.00 | 0.00 | 0.08 | 86 | 1015.0 |
| 20260506030824 | 12 | 180 | 0.0 | 0.0 | 0.00 | 0.00 | 0.08 | 84 | 1015.0 |
| 20260506030304 | 12 | 203 | 0.0 | 0.0 | 0.00 | 0.00 | 0.08 | 83 | 1015.0 |
| 20260506025744 | 13 | 203 | 0.0 | 0.0 | 0.00 | 0.00 | 0.08 | 82 | 1015.0 |
| 20260506025228 | 13 | 158 | 0.0 | 0.0 | 0.00 | 0.00 | 0.08 | 82 | 1014.8 |
| 20260506024709 | 13 | 90 | 0.0 | 0.0 | 0.00 | 0.00 | 0.08 | 80 | 1014.8 |
| 20260506024149 | 13 | 203 | 1.6 | 1.6 | 0.00 | 0.00 | 0.08 | 80 | 1014.6 |
| 20260506023629 | 13 | 270 | 4.8 | 4.8 | 0.00 | 0.00 | 0.08 | 80 | 1014.6 |
| 20260506023114 | 13 | 248 | 4.8 | 4.8 | 0.00 | 0.00 | 0.08 | 79 | 1014.6 |
| 20260506022034 | 13 | 225 | 4.8 | 4.8 | 0.00 | 0.00 | 0.08 | 78 | 1014.6 |
| 20260506021514 | 14 | 270 | 6.4 | 6.4 | 0.00 | 0.00 | 0.08 | 77 | 1014.5 |
| 20260506020958 | 14 | 225 | 6.4 | 6.4 | 0.00 | 0.00 | 0.08 | 77 | 1014.5 |
| 20260506020439 | 15 | 270 | 11.3 | 11.3 | 0.00 | 0.00 | 0.08 | 75 | 1014.5 |
| 20260506015419 | 15 | 203 | 9.7 | 9.7 | 0.00 | 0.00 | 0.08 | 75 | 1014.4 |
| 20260506014839 | 15 | 225 | 8.0 | 8.0 | 0.00 | 0.00 | 0.08 | 74 | 1014.4 |
| 20260506014324 | 15 | 203 | 8.0 | 8.0 | 0.00 | 0.00 | 0.08 | 74 | 1014.4 |
| 20260506013804 | 15 | 225 | 6.4 | 6.4 | 0.00 | 0.00 | 0.08 | 76 | 1014.4 |
| 20260506013244 | 15 | 248 | 9.7 | 9.7 | 0.00 | 0.00 | 0.08 | 76 | 1014.4 |
| 20260506012724 | 15 | 248 | 9.7 | 9.7 | 0.00 | 0.00 | 0.08 | 76 | 1014.4 |
| 20260506012224 | 15 | 248 | 8.0 | 8.0 | 0.00 | 0.00 | 0.08 | 76 | 1014.4 |
| 20260506011709 | 15 | 203 | 4.8 | 4.8 | 0.00 | 0.00 | 0.08 | 76 | 1014.3 |
| 20260506011149 | 15 | 270 | 6.4 | 6.4 | 0.00 | 0.00 | 0.08 | 75 | 1014.3 |
| 20260506010629 | 15 | 203 | 6.4 | 6.4 | 0.00 | 0.00 | 0.08 | 74 | 1014.5 |
| 20260506010109 | 15 | 225 | 6.4 | 6.4 | 0.00 | 0.00 | 0.08 | 74 | 1014.5 |
| 20260506005554 | 16 | 270 | 6.4 | 6.4 | 0.00 | 0.00 | 0.08 | 74 | 1014.5 |
| 20260506005034 | 16 | 270 | 6.4 | 6.4 | 0.00 | 0.00 | 0.08 | 73 | 1014.4 |
| 20260506004514 | 16 | 270 | 6.4 | 6.4 | 0.00 | 0.00 | 0.08 | 73 | 1014.4 |
| 20260506003939 | 16 | 270 | 6.4 | 6.4 | 0.00 | 0.00 | 0.08 | 72 | 1014.4 |
| 20260506003419 | 16 | 203 | 8.0 | 8.0 | 0.00 | 0.00 | 0.08 | 72 | 1014.4 |
| 20260506002339 | 16 | 203 | 8.0 | 8.0 | 0.00 | 0.00 | 0.08 | 72 | 1014.4 |
| 20260506001824 | 16 | 270 | 6.4 | 6.4 | 0.00 | 0.00 | 0.08 | 72 | 1014.2 |
| 20260506001304 | 16 | 225 | 8.0 | 8.0 | 0.00 | 0.00 | 0.08 | 71 | 1014.2 |
| 20260506000744 | 17 | 0 | 8.0 | 8.0 | 0.00 | 0.00 | 0.08 | 70 | 1014.2 |
| 20260506000206 | 17 | 225 | 8.0 | 8.0 | 0.00 | 0.00 | 0.08 | 69 | 1014.2 |
| 20260505235649 | 17 | 225 | 6.4 | 6.4 | 0.00 | 0.00 | 0.08 | 70 | 1014.2 |
| 20260505235129 | 16 | 225 | 6.4 | 6.4 | 0.00 | 0.00 | 0.08 | 72 | 1014.3 |
| 20260505234049 | 17 | 225 | 8.0 | 8.0 | 0.00 | 0.00 | 0.08 | 70 | 1014.2 |
| 20260505233534 | 17 | 270 | 9.7 | 9.7 | 0.00 | 0.00 | 0.08 | 70 | 1014.2 |
| 20260505233014 | 17 | 270 | 4.8 | 4.8 | 0.00 | 0.00 | 0.08 | 70 | 1014.3 |
| 20260505230859 | 17 | 270 | 9.7 | 9.7 | 0.00 | 0.00 | 0.08 | 70 | 1014.3 |
| 20260505230339 | 17 | 248 | 8.0 | 8.0 | 0.00 | 0.00 | 0.08 | 69 | 1014.3 |
| 20260505225819 | 18 | 270 | 4.8 | 4.8 | 0.00 | 0.00 | 0.08 | 68 | 1014.3 |
| 20260505225224 | 18 | 248 | 6.4 | 6.4 | 0.00 | 0.00 | 0.08 | 69 | 1014.4 |
| 20260505223644 | 19 | 248 | 9.7 | 9.7 | 0.00 | 0.00 | 0.08 | 66 | 1014.3 |
| 20260505223144 | 20 | 248 | 4.8 | 4.8 | 0.00 | 0.00 | 0.08 | 65 | 1014.4 |
| 20260505222629 | 20 | 225 | 8.0 | 8.0 | 0.00 | 0.00 | 0.08 | 65 | 1014.4 |
| 20260505222109 | 19 | 180 | 6.4 | 6.4 | 0.00 | 0.00 | 0.08 | 66 | 1014.4 |
| 20260505221609 | 20 | 248 | 8.0 | 8.0 | 0.00 | 0.00 | 0.08 | 66 | 1014.5 |
| 20260505215954 | 18 | 248 | 4.8 | 4.8 | 0.00 | 0.00 | 0.08 | 67 | 1014.5 |
| 20260505215434 | 18 | 203 | 3.2 | 3.2 | 0.00 | 0.00 | 0.08 | 68 | 1014.6 |
| 20260505214914 | 18 | 293 | 4.8 | 4.8 | 0.00 | 0.00 | 0.08 | 69 | 1014.6 |
| 20260505214339 | 18 | 225 | 6.4 | 6.4 | 0.00 | 0.00 | 0.08 | 68 | 1014.7 |
| 20260505213259 | 18 | 203 | 6.4 | 6.4 | 0.00 | 0.00 | 0.08 | 68 | 1014.7 |
| 20260505212744 | 18 | 203 | 6.4 | 6.4 | 0.00 | 0.00 | 0.08 | 67 | 1014.7 |